sat.trackr.live / text

‹ back to catalog

JILIN-1 GAOFEN 3D29

NORAD 52446 · 2022-048D

PAYLOAD ACTIVE UNKNOWN

§ Identity

Operator
Country
PRC
Launch date
2022-05-05
Launch site
TAISC
Launch vehicle
Mass (kg)
RCS (m²)

External: N2YO · Heavens-Above · Gunter

§ Orbital elements

Epoch: 2026-09-01T05:11:28.479840Z

Period
87.78 min
Inclination
97.5613°
Eccentricity
0.0012239
Mean motion
16.40520656 rev/d
Perigee alt
156.4 km
Apogee alt
172.4 km
Semi-major
6,542.6 km
B*
5.1360e-4
RAAN
7.2672°
Arg perigee
273.8210°
Mean anomaly
86.1690°
Rev number
24,158

§ Raw data

JILIN-1 GAOFEN 3D291 52446U 22048D   26244.21630185  .07932232  26489-5  51360-3 0  99912 52446  97.5613   7.2672 0012239 273.8210  86.1690 16.40520656241583

JSON: /api/v1/satellites/52446 · /tle

For live sub-satellite position, see the globe view (requires WebGL).

§ Visibility from observer

Set your observer location to see the next 7 days of passes ≥ 10°. The values pass through the URL so the page stays shareable.

No JS? Fill the form by hand. The geolocation button needs JavaScript.